Regional Weather Roundup
Issued by NWS

Home | Current Version | Previous Version | Graphics & Text | Print | Product List | Glossary On
Versions: 1 2 3 4 5 6 7 8 9 10 11 12 13 14 15 16 17 18 19 20 21 22 23 24 25 26 27 28 29 30 31 32 33 34 35 36 37 38 39 40 41 42 43 44 45 46 47 48 49 50
000
ASUS43 KIND 112259
RWRIN

WEATHER ROUNDUP FOR INDIANA
NATIONAL WEATHER SERVICE INDIANAPOLIS IN
700 PM EDT FRI JUL 11 2014

NOTE: "FAIR" INDICATES FEW OR NO CLOUDS BELOW 12,000 FEET WITH NO
SIGNIFICANT WEATHER AND/OR OBSTRUCTIONS TO VISIBILITY.

* - STATION DOES NOT REPORT WEATHER SUCH AS PRECIPITATION OR FOG.

+ - STATION NOT QUALITY CONTROLLED BY THE NATIONAL WEATHER SERVICE.
    USE DATA WITH CAUTION...ESPECIALLY DEWPOINT AND RELATIVE
    HUMIDITY OBSERVATIONS.

INZ001>003-010>013-019-020-120000-
NORTHWEST INDIANA

CITY           SKY/WX    TMP DP  RH WIND       PRES   REMARKS
MONTICELLO +   PTSUNNY   80  61  52 S5        30.13F
RENSSELAER +   PTSUNNY   77  59  53 S5        30.14S
VALPARAISO     CLOUDY    76  58  53 S5        30.14F

$$

LMZ046-743>745-120000-
SOUTHERN LAKE MICHIGAN

STATION/POSITION TIME  TEMP WIND        PRES
                       AIR  DIR/SP/G
                 (UTC) (F)  (DEG/KT/KT) (MB)
MICHIGAN CITY    2200   72   20/  7/  7   N/A

$$

INZ004-005-014>016-021>024-120000-
NORTH CENTRAL INDIANA

CITY           SKY/WX    TMP DP  RH WIND       PRES   REMARKS
GOSHEN         CLOUDY    76  57  51 SW6       30.15S
SOUTH BEND     CLOUDY    78  55  44 S8        30.14F

$$

INZ006>009-017-018-025>027-120000-
NORTHEAST INDIANA

CITY           SKY/WX    TMP DP  RH WIND       PRES   REMARKS
ANGOLA *+      SUNNY     79  59  50 SW5       30.15F
FORT WAYNE     PTSUNNY   80  53  39 SW6       30.15F

$$

INZ028-029-035-036-043>045-051>053-120000-
WEST CENTRAL INDIANA

CITY           SKY/WX    TMP DP  RH WIND       PRES   REMARKS
GREENCASTLE +  SUNNY     79  59  50 CALM      30.15S
LAFAYETTE      PTSUNNY   79  59  50 S5        30.13F
TERRE HAUTE    SUNNY     82  57  42 S5        30.14S

$$

INZ030>032-037>040-046>048-054>057-064-065-120000-
CENTRAL INDIANA

CITY           SKY/WX    TMP DP  RH WIND       PRES   REMARKS
INDIANAPOLIS   MOSUNNY   80  58  46 S3        30.14F
-EAGLE CREEK   MOSUNNY   80  55  42 VRB5      30.14F
KOKOMO *+      PTSUNNY   79  61  53 SE6       30.15S
MT COMFORT *+  MOSUNNY   81  59  47 S5        30.16S
SHELBYVILLE    SUNNY     82  58  43 VRB5      30.15F

$$

INZ033-034-041-042-049-050-058-059-120000-
EAST CENTRAL INDIANA

CITY           SKY/WX    TMP DP  RH WIND       PRES   REMARKS
MUNCIE         SUNNY     79  55  43 SW7       30.15F

$$

INZ060-061-067>069-081>083-085>088-120000-
SOUTHWEST INDIANA

CITY           SKY/WX    TMP DP  RH WIND       PRES   REMARKS
EVANSVILLE     SUNNY     87  59  38 W8        30.13S
HUNTINGBURG *+ SUNNY     86  57  37 CALM      30.13F

$$

INZ062-063-066-070>080-084-089>092-120000-
SOUTH CENTRAL AND SOUTHEAST INDIANA

CITY           SKY/WX    TMP DP  RH WIND       PRES   REMARKS
BLOOMINGTON    SUNNY     82  57  42 SW7       30.15S
SEYMOUR +      SUNNY     81  39  22 CALM      30.13

$$



USA.gov is the U.S. government's official web portal to all federal, state and local government web resources and services.